Find Starlink 3260

NORAD ID: 50205 Int'l Des: 2021-125 Owner: SPXS Country: US Constellation: starlink operational
LEOCIRCULAR

当前视图

正在加载3D地球...

About Starlink 3260

Starlink 3260 (NORAD 50205) is a starlink constellation satellite (v1.5) launched Dec 18, 2021 by SPXS of US. It operates in LEO, CIRCULAR orbit with a mass of 290.00 kg.

关于 Starlink 3260

正在加载描述...

即将过境

Passes for default location (London). Set your location on the main map for personalized predictions.

高度历史

Loading altitude history...

两行轨道根数

1 50205U 21125BB 26194.79168126 .00001052 00000-0 84236-4 0 9990
2 50205 53.1611 2.7765 0001373 88.1795 271.9353 15.08820128256198
Epoch: Jul 13, 2026 • Age: 12 hours

当前状态

高度 541.5 km
远地点 / 近地点 N/A
速度 7.60 km/s
星下点 33.83°N, 117.54°E
发射日期 Dec 18, 2021
运行时间 4.5 years
类型 internet

技术详情

分类 Payload
质量 290.00 kg
干质量 270.00 kg
总质量 290.00 kg
长度 0.20 m
直径 2.80 m
跨度 9.00 m
形状 Box + pan
制造商 SPXS
平台类型 Starlink
阶段状态 In Orbit
所有者/国家 SPXS/US

Most Searched